Location: R�o Tuerlos
(40.6704°N, 4.4622°W)
Time: 08:51:16
(UTC+00:00)

Iridium 2 - Pass Details

Date: 07 June 2020
Orbit: 505 x 514 km, 85.5° (Epoch: 14 July)

Event Time Altitude Azimuth Distance (km) Brightness Sun altitude
Rises 01:56:51 0° 1° (N) 2,623 8.4 -22.4°
Reaches altitude 10° 01:59:01 10° 6° (N) 1,734 7.3 -22.2°
Maximum altitude 02:02:44 53° 84° (E) 631 4.2 -21.9°
Enters shadow 02:03:18 48° 119° (ESE) 677 4.2 -21.9°
